Location: Houlle
(50.7954°N, 2.1730°E)
Time: 01:16:49
(UTC+00:00)

Daily predictions for brighter satellites

Satellite Brightness Start Highest point End
(mag) Time Altitude Azimuth Time Altitude Azimuth Time Altitude Azimuth
STARLINK-1367 3.5 00:00:12 10° W 00:03:18 58° N 00:06:26 10° ENE
STARLINK-1366 3.5 00:00:34 10° W 00:03:40 57° N 00:06:46 10° ENE
STARLINK-1240 4.4 00:00:04 10° W 00:03:44 30° SW 00:03:59 30° SSW
STARLINK-66 4.4 00:07:08 24° ESE 00:07:08 24° ESE 00:09:11 10° E
Cosmos 2227 Rocket 2.6 00:01:50 10° NW 00:07:18 48° WSW 00:10:11 26° S
STARLINK-1338 3.8 00:03:46 10° W 00:07:45 68° N 00:11:44 10° ENE
Landsat 4 3.6 00:04:09 10° NNE 00:07:53 82° WNW 00:09:24 34° SSW
Cosmos 1763 Rocket 3.5 00:05:57 28° S 00:08:34 63° ESE 00:13:35 10° NNE
Cosmos 1709 Rocket 4.4 00:05:05 21° SSE 00:08:58 52° E 00:14:57 10° NNE
NOSS 7 (E) 4.4 00:09:44 42° S 00:10:32 57° SE 00:13:35 10° NE
STARLINK-52 3.6 00:07:50 10° WNW 00:11:01 57° N 00:14:12 10° E
Cosmos 2084 Rocket 3.5 00:07:05 10° NW 00:11:33 89° WSW 00:14:58 17° SE
Cosmos 1356 Rocket 4.1 00:08:07 10° NNW 00:12:10 44° W 00:13:55 28° SSW
SL-14 R/B 4.4 00:11:48 21° SW 00:13:46 34° WNW 00:17:19 10° N
STARLINK-1371 3.9 00:12:09 10° W 00:16:06 66° N 00:20:03 10° ENE
STARLINK-75 4.1 00:18:02 27° SE 00:18:02 27° SE 00:20:29 10° E
Cosmos 1758 Rocket 4.2 00:15:28 25° SSE 00:17:40 47° E 00:21:56 10° NNE
SL-16 R/B 3.9 00:12:12 10° ESE 00:17:43 36° ENE 00:23:16 10° N
STARLINK-1341 3.9 00:16:32 10° W 00:20:30 65° N 00:24:27 10° ENE
STARLINK-1313 4.4 00:21:38 23° SE 00:21:38 23° SE 00:23:41 10° E
STARLINK-80 4.5 00:21:07 27° SE 00:21:14 27° SE 00:24:29 10° E
Nadezhda 1 Rocket 4.2 00:15:25 10° NNW 00:21:35 63° W 00:25:28 24° SSW
STARLINK-1279 4.3 00:22:32 24° SE 00:22:32 24° SE 00:24:37 10° E
CZ-4 R/B 3.8 00:17:36 10° NNE 00:22:22 76° ESE 00:24:50 28° S
STARLINK-1298 4.5 00:23:16 22° ESE 00:23:16 22° ESE 00:25:11 10° E
Cosmos 1300 4.4 00:19:46 10° NW 00:22:48 22° W 00:24:09 19° WSW
STARLINK-1293 4.4 00:24:10 22° ESE 00:24:10 22° ESE 00:26:08 10° E
STARLINK-1374 3.9 00:20:53 10° W 00:24:51 64° N 00:28:51 10° ENE
STARLINK-1255 4.4 00:25:54 23° SE 00:25:54 23° SE 00:27:58 10° E
STARLINK-22 4.2 00:26:16 26° SE 00:26:16 26° SE 00:28:41 10° E
STARLINK 1040 2.2 00:26:21 70° SE 00:26:21 70° SE 00:28:51 10° ENE
SL-16 R/B 4.3 00:23:30 10° SE 00:26:26 15° E 00:29:23 10° ENE
STARLINK-1297 4.4 00:26:32 26° SE 00:26:32 26° SE 00:29:34 10° E
STARLINK-1444 2.2 00:24:28 10° WNW 00:26:39 69° NNE 00:26:52 61° ENE
STARLINK-1452 2.2 00:25:07 10° WNW 00:27:16 69° NNE 00:27:17 69° NNE
Cosmos 2285 Rocket 4.0 00:20:55 10° NNW 00:27:19 81° WSW 00:31:55 20° SSE
STARLINK-1311 4.1 00:28:27 25° ESE 00:28:27 25° ESE 00:30:26 10° E
STARLINK-1392 2.9 00:25:55 10° WNW 00:27:26 40° NW 00:27:26 40° NW
STARLINK-1399 2.7 00:25:57 10° WNW 00:27:36 46° NW 00:27:36 46° NW
STARLINK-1393 2.8 00:25:59 10° WNW 00:27:35 43° NW 00:27:35 43° NW
STARLINK-1394 2.8 00:26:01 10° WNW 00:27:36 43° NW 00:27:36 43° NW
STARLINK-1395 3.3 00:26:05 10° WNW 00:27:24 32° WNW 00:27:24 32° WNW
STARLINK-1397 2.7 00:26:04 10° WNW 00:27:44 46° NW 00:27:44 46° NW
STARLINK-1396 2.8 00:26:05 10° WNW 00:27:42 44° NW 00:27:42 44° NW
STARLINK-1414 2.9 00:26:05 10° WNW 00:27:36 39° NW 00:27:36 39° NW
STARLINK-1408 3.0 00:26:08 10° WNW 00:27:38 39° WNW 00:27:38 39° WNW
STARLINK-1404 2.7 00:26:10 10° WNW 00:27:49 46° NW 00:27:49 46° NW
STARLINK-1416 2.9 00:26:11 10° WNW 00:27:44 41° NW 00:27:44 41° NW
STARLINK-1415 2.5 00:26:11 10° WNW 00:27:57 51° NW 00:27:57 51° NW
STARLINK-1406 3.1 00:26:14 10° WNW 00:27:41 37° WNW 00:27:41 37° WNW
STARLINK-1450 2.5 00:26:13 10° WNW 00:28:00 52° NW 00:28:00 52° NW
STARLINK-1401 2.5 00:26:14 10° WNW 00:28:00 52° NW 00:28:00 52° NW
STARLINK-1417 2.5 00:26:19 10° WNW 00:28:04 52° NW 00:28:04 52° NW
STARLINK-1413 2.5 00:26:20 10° WNW 00:28:05 52° NW 00:28:05 52° NW
STARLINK-1402 2.5 00:26:20 10° WNW 00:28:05 51° NW 00:28:05 51° NW
STARLINK-1419 2.7 00:26:21 10° WNW 00:28:00 46° NW 00:28:00 46° NW
STARLINK-1422 2.6 00:26:26 10° WNW 00:28:09 50° NW 00:28:09 50° NW
STARLINK-1453 2.4 00:26:27 10° WNW 00:28:18 58° NW 00:28:18 58° NW
STARLINK-1398 2.2 00:26:28 10° WNW 00:28:28 66° NNW 00:28:28 66° NNW
STARLINK-1420 2.5 00:26:30 10° WNW 00:28:17 54° NW 00:28:17 54° NW
STARLINK-1440 2.4 00:26:32 10° WNW 00:28:21 55° NW 00:28:21 55° NW
STARLINK-1460 2.5 00:26:32 10° WNW 00:28:21 54° NW 00:28:21 54° NW
STARLINK-1436 (VISORSAT) 2.2 00:26:32 10° WNW 00:28:34 67° NNW 00:28:34 67° NNW
STARLINK-1410 2.5 00:26:37 10° WNW 00:28:23 52° NW 00:28:23 52° NW
STARLINK-1423 2.7 00:26:38 10° WNW 00:28:16 45° NW 00:28:16 45° NW
STARLINK-1421 2.7 00:26:38 10° WNW 00:28:16 45° NW 00:28:16 45° NW
STARLINK-1400 2.5 00:26:38 10° WNW 00:28:24 53° NW 00:28:24 53° NW
STARLINK-1454 2.5 00:26:39 10° WNW 00:28:26 53° NW 00:28:26 53° NW
STARLINK-1458 2.6 00:26:42 10° WNW 00:28:24 49° NW 00:28:24 49° NW
STARLINK-1445 2.4 00:26:44 10° WNW 00:28:34 57° NW 00:28:34 57° NW
STARLINK-1405 3.2 00:26:48 10° WNW 00:28:09 33° WNW 00:28:09 33° WNW
STARLINK-1407 2.4 00:26:46 10° WNW 00:28:35 55° NW 00:28:35 55° NW
STARLINK-1446 2.4 00:26:46 10° WNW 00:28:37 57° NW 00:28:37 57° NW
STARLINK-1370 2.4 00:26:48 10° WNW 00:28:37 55° NW 00:28:37 55° NW
STARLINK-1439 3.2 00:26:52 10° WNW 00:28:12 33° WNW 00:28:12 33° WNW
STARLINK-1456 2.6 00:26:50 10° WNW 00:28:32 49° NW 00:28:32 49° NW
STARLINK-1457 2.6 00:26:50 10° WNW 00:28:33 49° NW 00:28:33 49° NW
STARLINK-1451 2.6 00:26:51 10° WNW 00:28:33 48° NW 00:28:33 48° NW
STARLINK-1409 2.6 00:26:51 10° WNW 00:28:33 49° NW 00:28:33 49° NW
STARLINK-1447 2.4 00:26:51 10° WNW 00:28:41 56° NW 00:28:41 56° NW
STARLINK-1455 2.4 00:26:52 10° WNW 00:28:41 55° NW 00:28:41 55° NW
STARLINK-1437 2.5 00:26:53 10° WNW 00:28:38 52° NW 00:28:38 52° NW
STARLINK-1441 2.4 00:26:54 10° WNW 00:28:44 56° NW 00:28:44 56° NW
STARLINK-1443 2.3 00:26:57 10° WNW 00:28:52 62° NW 00:28:52 62° NW
STARLINK-1339 4.0 00:25:09 10° W 00:29:07 63° N 00:33:05 10° ENE
STARLINK-1403 2.3 00:26:59 10° WNW 00:28:52 59° NW 00:28:52 59° NW
STARLINK-1351 2.4 00:26:58 10° WNW 00:28:48 56° NW 00:28:48 56° NW
STARLINK-1418 2.4 00:26:58 10° WNW 00:28:48 56° NW 00:28:48 56° NW
STARLINK-1434 2.3 00:26:59 10° WNW 00:28:54 61° NW 00:28:54 61° NW
STARLINK-1442 2.4 00:27:00 10° WNW 00:28:50 57° NW 00:28:50 57° NW
STARLINK-1433 2.4 00:27:02 10° WNW 00:28:51 55° NW 00:28:51 55° NW
STARLINK-1448 2.4 00:27:02 10° WNW 00:28:51 56° NW 00:28:51 56° NW
STARLINK-1449 2.4 00:27:05 10° WNW 00:28:57 58° NW 00:28:57 58° NW
STARLINK-1438 2.6 00:27:08 10° WNW 00:28:48 48° NW 00:28:48 48° NW
STARLINK-1411 2.5 00:27:15 10° WNW 00:29:01 52° NW 00:29:01 52° NW
STARLINK-1412 2.4 00:27:15 10° WNW 00:29:05 56° NW 00:29:05 56° NW
CZ-2D R/B 3.9 00:27:08 10° NE 00:31:06 21° E 00:35:01 10° SE
Cosmos-2242 3.1 00:27:40 10° N 00:31:57 72° ENE 00:34:23 25° SSE
Meteor 2-10 Rocket 3.5 00:27:15 10° NNW 00:32:24 72° W 00:35:16 26° S
USA 81 4.1 00:30:17 25° S 00:33:26 75° E 00:38:44 10° N
STARLINK-1377 4.0 00:29:34 10° W 00:33:33 63° N 00:37:32 10° ENE
USA 215 3.3 00:29:02 10° SE 00:35:28 57° SW 00:41:56 10° WNW
Cosmos 1953 Rocket 4.4 00:33:32 21° SSE 00:36:03 41° E 00:40:12 10° NNE
BREEZE-M R/B 3.1 00:29:37 10° WSW 00:36:17 72° S 00:39:40 10° E
STARLINK-42 3.4 00:36:26 38° SSE 00:36:33 38° SSE 00:39:30 10° E
Cosmos 1626 Rocket 4.2 00:34:39 23° SW 00:36:59 45° WNW 00:41:14 10° N
STARLINK-1353 4.0 00:33:55 10° W 00:37:54 62° N 00:41:53 10° ENE
Meteor 1-21 Rocket 4.3 00:34:27 25° SSW 00:37:59 88° W 00:43:50 10° NNE
STARLINK-60 2.8 00:35:54 10° WNW 00:39:06 84° SSW 00:42:18 10° ESE
FALCON 9 DEB 3.7 00:35:59 10° WNW 00:39:25 61° N 00:42:51 10° E
STARLINK-34 4.3 00:40:02 22° SE 00:40:02 22° SE 00:42:10 10° E
GP-B 4.3 00:35:40 10° NNE 00:39:47 36° E 00:42:59 15° SE
STARLINK-41 3.3 00:40:11 38° SSE 00:40:17 38° SSE 00:43:10 10° E
STARLINK-1375 4.0 00:38:17 10° W 00:42:16 62° N 00:46:16 10° E
SeaSat 1 3.9 00:37:56 10° NNE 00:42:21 34° NW 00:46:45 10° WSW
STARLINK-1272 4.0 00:42:02 31° SSE 00:42:30 33° SE 00:45:43 10° E
STARLINK-62 4.2 00:43:45 24° SE 00:43:45 24° SE 00:46:02 10° E
Cosmos 540 Rocket 3.6 00:41:07 25° S 00:44:03 65° ESE 00:49:08 10° NNE
STARLINK-1350 4.0 00:42:38 10° W 00:46:37 62° N 00:50:37 10° E
STARLINK-1307 4.0 00:46:48 31° S 00:47:38 36° SE 00:51:05 10° ENE
Helios 1B rocket 2.6 00:44:04 10° N 00:48:12 67° WNW 00:50:24 26° SSW
STARLINK-1352 4.0 00:46:54 10° W 00:50:53 62° N 00:54:51 10° E
STARLINK-1290 4.0 00:50:11 31° S 00:51:08 38° SSE 00:54:37 10° ENE
Cosmos 1980 Rocket 2.3 00:51:50 23° SSW 00:55:21 69° ESE 01:01:00 10° NNE
STARLINK-1368 4.0 00:51:30 10° W 00:55:30 62° N 00:59:29 10° E
ERBS 4.4 00:54:17 10° W 00:55:10 14° WSW 00:55:10 14° WSW
Meteor 1-29 2.9 00:53:24 10° N 00:56:46 76° WNW 00:58:11 32° SSW
STARLINK-1317 3.8 00:56:33 29° SSW 00:58:04 45° SSE 01:01:49 10° ENE
Cosmos 1455 2.9 00:55:06 10° NNW 00:58:37 39° W 01:00:05 26° SW
STARLINK-1369 4.0 00:55:56 10° W 00:59:56 62° N 01:03:56 10° E
Cosmos 1328 3.7 00:59:35 27° SSW 01:01:39 84° W 01:05:40 10° N
STARLINK-55 2.9 01:00:33 31° SW 01:01:52 64° SSE 01:05:03 10° ENE
STARLINK-1274 3.6 01:00:56 31° SSW 01:02:06 44° SSE 01:05:29 10° ENE
STARLINK-43 3.3 01:00:05 14° WSW 01:03:11 87° NNW 01:06:54 10° ENE
STARLINK-1372 4.0 01:00:11 10° W 01:04:11 62° N 01:08:09 10° E
Cosmos 1937 Rocket 4.4 00:59:58 10° NW 01:04:37 32° WSW 01:07:10 21° SSW
STARLINK-1291 3.6 01:04:15 29° SSW 01:05:47 47° SSE 01:09:23 10° ENE
Cosmos 2369 3.9 01:02:04 18° SW 01:06:14 66° WNW 01:11:54 10° NNE
Lacrosse 4 Rocket 3.0 01:03:33 10° WNW 01:06:33 19° WSW 01:07:20 18° WSW
Meteor 1-11 4.4 01:03:54 20° S 01:07:52 68° E 01:13:25 10° NNE
Cosmos 1703 3.4 01:05:53 26° SSW 01:07:56 66° WNW 01:11:52 10° N
STARLINK-1378 4.0 01:04:49 10° W 01:08:49 62° N 01:12:49 10° E
STARLINK-1264 3.6 01:07:26 28° SSW 01:09:05 49° SSE 01:12:43 10° ENE
ADEOS II 4.2 01:05:23 10° NE 01:09:06 19° E 01:12:49 10° SE
Cosmos 2263 Rocket 2.2 01:03:54 10° NNW 01:09:33 86° ENE 01:15:09 10° SSE
Timation 1 Rocket 4.4 01:05:08 10° NW 01:11:04 65° WSW 01:16:19 13° SSE
Cosmos 1825 Rocket 3.7 01:08:39 24° SSW 01:11:09 63° WNW 01:15:30 10° N
STARLINK-29 2.8 01:08:40 10° WNW 01:11:54 87° SSW 01:15:05 10° ESE
STARLINK-1267 3.5 01:10:39 26° SW 01:12:26 52° SSE 01:16:05 10° ENE
Cosmos 2297 Rocket 4.1 01:09:52 10° WNW 01:12:42 14° W 01:14:46 12° WSW
STARLINK-1379 4.0 01:09:19 10° WNW 01:13:20 63° N 01:17:21 10° E
SL-4 R/B 2.4 01:08:35 10° WNW 01:13:22 60° SSW 01:18:01 10° SE
STARLINK-28 2.8 01:11:33 23° WSW 01:13:23 78° SSE 01:16:36 10° ENE
USA 229 DEB 3.9 01:07:48 10° NW 01:15:03 85° SW 01:22:39 10° SE
USA 229 3.9 01:07:55 10° NW 01:15:09 85° SW 01:22:46 10° SE
STARLINK-64 4.4 01:14:12 24° S 01:15:10 27° SE 01:18:15 10° E
UNK 3.9 01:11:40 13° SSE 01:15:48 71° ENE 01:20:22 10° N
NOSS 3-1 (C) 4.0 01:08:31 10° NW 01:15:53 80° SW 01:24:26 10° SE
STARLINK-1329 4.0 01:13:07 10° WNW 01:17:09 64° N 01:21:10 10° E
Cosmos 372 Rocket 4.2 01:12:20 10° NNW 01:17:19 51° WSW 01:20:47 19° S
NPP 4.4 01:13:16 10° NNE 01:18:27 45° E 01:22:54 14° SSE
STARLINK-1207 3.4 01:17:09 24° SW 01:19:11 57° SSE 01:22:53 10° ENE
Cosmos 2184 Rocket 4.2 01:16:26 16° S 01:21:24 69° E 01:27:33 10° NNE
STARLINK-1362 4.0 01:17:39 10° WNW 01:21:41 64° N 01:25:43 10° E
CZ-4C R/B 2.9 01:16:49 10° WSW 01:22:00 53° NW 01:28:17 10° NE
Cosmos 2360 4.5 01:17:45 17° SW 01:22:06 66° WNW 01:27:49 10° NNE
STARLINK-1266 3.4 01:20:25 23° SW 01:22:34 59° SSE 01:26:17 10° ENE
BREEZE-M DEB (TANK) 2.8 01:23:14 25° SSE 01:23:14 25° SSE 01:25:11 10° E
STARLINK-33 2.7 01:21:41 21° WSW 01:23:35 81° SSE 01:26:43 10° ENE
NOSS 3-1 (A) 4.1 01:16:42 10° NW 01:24:03 86° NE 01:32:36 10° SE
STARLINK-1284 3.4 01:23:40 21° SW 01:25:58 62° SSE 01:29:41 10° ENE
STARLINK-1373 4.0 01:22:12 10° WNW 01:26:13 65° N 01:30:14 10° E
STARLINK-1320 3.3 01:23:23 10° WNW 01:26:30 64° N 01:29:36 10° E
STARLINK-1322 3.3 01:23:44 10° WNW 01:26:51 64° N 01:29:57 10° E
STARLINK-26 3.0 01:24:27 17° WSW 01:27:02 86° SSE 01:30:29 10° ENE
STARLINK-1324 3.3 01:24:03 10° WNW 01:27:10 64° N 01:30:16 10° E
BREEZE-M DEB (TANK) 0.9 01:24:37 10° W 01:27:17 70° S 01:29:39 10° E
STARLINK-1294 3.3 01:24:21 10° WNW 01:27:29 64° NNE 01:30:37 10° E
STARLINK-1261 3.3 01:24:44 10° WNW 01:27:51 64° N 01:30:58 10° E
STARLINK-1325 3.3 01:25:06 10° WNW 01:28:12 65° NNE 01:31:19 10° E
STARLINK-1333 3.3 01:25:28 10° WNW 01:28:35 65° NNE 01:31:41 10° E
STARLINK-1334 3.3 01:25:45 10° WNW 01:28:52 65° NNE 01:31:58 10° E
STARLINK-1326 3.3 01:26:04 10° WNW 01:29:11 65° NNE 01:32:18 10° E
Cosmos 1869 3.8 01:25:27 10° N 01:29:16 56° ENE 01:33:00 10° SSE
STARLINK-1258 3.3 01:26:59 20° SW 01:29:24 65° SSE 01:33:08 10° ENE
STARLINK-1323 3.3 01:26:27 10° WNW 01:29:34 65° NNE 01:32:41 10° E
STARLINK-1349 3.3 01:26:45 10° WNW 01:29:52 65° N 01:32:59 10° E
Cosmos 2150 Rocket 4.2 01:24:57 10° NNW 01:29:58 53° WSW 01:33:54 16° S
STARLINK-1336 3.3 01:27:05 10° WNW 01:30:11 65° NNE 01:33:18 10° E
STARLINK-1331 3.3 01:27:27 10° WNW 01:30:34 66° NNE 01:33:41 10° E
STARLINK-1390 4.0 01:26:47 10° WNW 01:30:50 66° N 01:34:52 10° E
STARLINK-1344 3.3 01:27:46 10° WNW 01:30:52 66° NNE 01:33:59 10° E
STARLINK-1343 3.2 01:28:09 10° WNW 01:31:15 66° NNE 01:34:22 10° E
STARLINK-1346 3.3 01:28:24 10° WNW 01:31:34 66° NNE 01:34:42 10° E
STARLINK-1328 3.2 01:28:52 10° WNW 01:31:59 66° NNE 01:35:05 10° E
STARLINK-1354 3.2 01:29:09 10° WNW 01:32:16 66° NNE 01:35:23 10° E
STARLINK-1347 3.2 01:29:26 10° WNW 01:32:33 67° NNE 01:35:40 10° E
STARLINK-1292 3.3 01:30:17 19° SW 01:32:50 67° SSE 01:36:34 10° ENE
STARLINK-1357 3.2 01:29:52 10° WNW 01:32:59 67° NNE 01:36:06 10° E
Cosmos 1814 Rocket 4.3 01:29:12 18° SW 01:33:11 60° WNW 01:38:27 10° NNE
STARLINK-1335 3.2 01:30:09 10° WNW 01:33:16 67° NNE 01:36:22 10° E
STARLINK-1327 3.2 01:30:30 10° WNW 01:33:37 67° NNE 01:36:44 10° E
STARLINK-1340 3.2 01:30:48 10° WNW 01:33:55 67° NNE 01:37:02 10° E
Cosmos 2322 Rocket 3.2 01:29:42 13° S 01:34:11 38° ESE 01:39:20 10° NE
STARLINK-1356 3.2 01:31:11 10° WNW 01:34:18 67° NNE 01:37:25 10° E
STARLINK-1345 3.2 01:31:30 10° WNW 01:34:37 68° NNE 01:37:43 10° E
STARLINK-1355 3.2 01:31:51 10° WNW 01:34:58 68° NNE 01:38:05 10° E
STARLINK-1321 3.2 01:32:12 10° WNW 01:35:19 68° NNE 01:38:26 10° E
STARLINK-1358 3.2 01:32:35 10° WNW 01:35:42 68° NNE 01:38:49 10° E
STARLINK-1332 3.2 01:32:52 10° WNW 01:36:00 68° NNE 01:39:06 10° E
STARLINK-1348 3.2 01:33:13 10° WNW 01:36:20 68° NNE 01:39:27 10° E
STARLINK-1330 3.2 01:33:32 10° WNW 01:36:39 69° NNE 01:39:47 10° E
STARLINK-1365 3.9 01:32:45 10° WNW 01:36:50 68° N 01:40:54 10° E
STARLINK-1363 3.2 01:33:52 10° WNW 01:36:59 69° NNE 01:40:06 10° E
STARLINK-1337 3.2 01:34:15 10° WNW 01:37:22 69° NNE 01:40:29 10° E
STARLINK-1342 3.2 01:34:34 10° WNW 01:37:42 69° NNE 01:40:48 10° E
STARLINK-1364 3.2 01:34:54 10° WNW 01:38:01 69° NNE 01:41:08 10° E
STARLINK-1376 3.2 01:35:14 10° WNW 01:38:21 70° NNE 01:41:29 10° E
STARLINK-1268 2.7 01:36:29 20° WSW 01:38:30 76° SSE 01:41:36 10° ENE
STARLINK-1360 3.2 01:35:34 10° WNW 01:38:42 70° NNE 01:41:50 10° E
STARLINK-1361 3.1 01:35:55 10° WNW 01:39:03 70° NNE 01:42:10 10° E
STARLINK-1367 3.2 01:36:11 10° WNW 01:39:21 71° NNE 01:42:30 10° E
STARLINK-1289 3.3 01:36:51 17° WSW 01:39:41 73° SSE 01:43:26 10° ENE
STARLINK-1366 3.1 01:36:34 10° WNW 01:39:42 70° NNE 01:42:49 10° E
Resurs 1-4 Rocket 2.2 01:35:09 10° NNE 01:40:30 76° ESE 01:44:54 15° S
Cosmos 1697 Rocket 3.7 01:36:19 10° WSW 01:41:33 39° NW 01:46:52 10° NNE
STARLINK-1301 3.3 01:38:35 15° WSW 01:41:39 76° SSE 01:45:31 10° ENE
Cosmos 1400 Rocket 3.7 01:38:30 10° NNW 01:42:19 36° W 01:44:46 19° SSW
STARLINK-66 2.9 01:39:32 13° WSW 01:42:19 82° NNW 01:45:33 10° ENE
Cosmos 2278 4.2 01:38:01 14° SW 01:42:47 52° NW 01:48:21 10° NNE
Cosmos 841 Rocket 4.2 01:38:49 14° SW 01:43:01 44° WNW 01:48:00 10° NNE
STARLINK-1303 3.3 01:40:12 16° WSW 01:43:10 76° SSE 01:46:56 10° ENE
Cosmos 1125 Rocket 3.5 01:38:29 10° NNW 01:43:38 64° WSW 01:48:47 10° S
STARLINK-1316 2.8 01:41:31 17° WSW 01:43:45 81° SSE 01:46:53 10° ENE
STARLINK-1257 2.8 01:42:21 17° WSW 01:44:38 82° SSE 01:47:47 10° ENE
STARLINK-1256 2.8 01:43:18 17° WSW 01:45:36 83° SSE 01:48:45 10° ENE
STARLINK-58 2.9 01:44:00 19° SW 01:46:05 67° SSE 01:49:15 10° ENE
STARLINK-1213 2.8 01:44:09 16° WSW 01:46:29 83° SSE 01:49:37 10° ENE
STARLINK-1312 3.3 01:43:32 14° WSW 01:46:40 79° SSE 01:50:26 10° ENE
STARLINK-1338 3.8 01:42:59 10° WNW 01:46:59 71° NNE 01:50:58 10° E
STARLINK-52 2.9 01:44:01 10° WNW 01:47:12 60° SSW 01:50:22 10° SE
STARLINK-1263 2.8 01:45:01 16° WSW 01:47:23 84° SSE 01:50:31 10° ENE
STARLINK-1259 2.8 01:45:54 16° WSW 01:48:19 85° SSE 01:51:27 10° ENE
STARLINK-1265 2.8 01:46:16 16° WSW 01:48:43 85° SSE 01:51:53 10° ENE
STARLINK-1285 2.8 01:46:44 15° WSW 01:49:12 86° SSE 01:52:20 10° ENE
STARLINK-1296 2.8 01:48:29 15° WSW 01:51:00 87° SSE 01:54:08 10° ENE
STARLINK-1260 2.8 01:49:21 14° WSW 01:51:54 88° SSE 01:55:03 10° ENE
STARLINK-1304 4.5 01:49:41 18° SSW 01:52:12 35° SE 01:55:59 10° ENE
STARLINK-1318 2.8 01:50:13 14° WSW 01:52:48 89° S 01:55:57 10° ENE
Cosmos 1408 4.4 01:50:19 10° SSE 01:53:30 28° E 01:56:40 10° NNE
STARLINK-75 3.0 01:50:26 11° WSW 01:53:33 79° NNW 01:56:49 10° ENE
STARLINK-1275 2.8 01:51:06 14° WSW 01:53:43 90° SE 01:56:51 10° ENE
STARLINK-1309 2.8 01:51:57 14° WSW 01:54:37 89° NNE 01:57:44 10° ENE
STARLINK-1371 3.7 01:51:16 10° WNW 01:55:14 74° NNE 01:59:12 10° E
STARLINK-1282 2.8 01:52:49 13° WSW 01:55:30 89° NNW 01:58:38 10° ENE
Cosmos 2154 Rocket 4.1 01:49:51 12° S 01:55:43 80° E 02:01:58 10° NNE
STARLINK-1313 2.9 01:53:45 12° WSW 01:56:37 83° NNW 01:59:46 10° ENE
STARLINK-48 3.6 01:53:48 16° SW 01:56:43 59° SSE 02:00:34 10° ENE
STARLINK-1279 2.9 01:54:40 12° WSW 01:57:33 82° NNW 02:00:41 10° ENE
STARLINK-1298 2.8 01:55:23 12° WSW 01:58:10 86° NNW 02:01:18 10° ENE
GEOS 3 Rocket 3.6 01:53:02 10° SE 01:58:13 70° SW 02:03:33 10° NW
STARLINK-1278 4.2 01:55:21 17° SSW 01:58:18 43° SSE 02:02:20 10° ENE
STARLINK-1293 2.8 01:56:16 12° WSW 01:59:06 86° NNW 02:02:15 10° ENE
STARLINK-80 3.4 01:55:29 11° WSW 01:59:12 90° ESE 02:03:01 10° ENE
STARLINK-1341 3.7 01:55:40 10° WNW 01:59:39 76° NNE 02:03:37 10° E
STARLINK-1283 3.6 01:55:40 10° WSW 01:59:48 90° NNW 02:03:57 10° ENE
Iridium 2 3.7 01:56:18 10° NNW 02:00:03 63° W 02:03:12 14° S
Cosmos 1825 4.2 01:57:06 10° SE 02:00:08 23° E 02:03:10 10° NE
STARLINK-1280 4.2 01:57:08 17° SSW 02:00:08 44° SSE 02:04:12 10° ENE
STARLINK 1040 3.3 01:57:49 10° W 02:00:19 48° N 02:02:49 10° ENE
STARLINK-1255 2.9 01:58:01 12° WSW 02:00:55 84° NNW 02:04:03 10° ENE
SL-16 R/B 2.8 01:55:28 11° S 02:01:09 52° W 02:07:12 10° NNW
STARLINK-22 3.0 01:58:39 11° WSW 02:01:48 81° NNW 02:05:01 10° ENE
Meteor 2-2 Rocket 4.4 01:55:56 10° NNW 02:01:59 75° W 02:07:56 10° S
STARLINK-1311 2.8 02:00:03 10° WSW 02:02:56 75° NNW 02:05:54 10° ENE
SL-08 R/B 4.0 01:58:27 10° SE 02:02:56 53° ENE 02:07:26 10° N
STARLINK-1297 3.2 02:00:20 11° WSW 02:03:52 89° NNW 02:07:30 10° ENE
Cosmos 1844 Rocket 3.4 01:58:30 10° NNW 02:04:02 57° NE 02:09:32 10° SE
STARLINK-1374 3.7 02:00:07 10° WNW 02:04:08 78° NNE 02:08:09 10° ESE
CRYOSAT 2 4.4 02:01:59 10° N 02:06:55 77° W 02:11:31 12° SSW
NOSS 2-1 (E) 3.2 02:04:58 16° SSW 02:07:30 61° SE 02:11:14 10° NE
STARLINK-1339 3.6 02:04:17 10° WNW 02:08:16 80° NNE 02:12:15 10° ESE
STARLINK-1286 4.2 02:05:37 15° SW 02:08:46 45° SSE 02:12:45 10° ENE
SL-16 R/B 2.3 02:04:36 14° SSW 02:09:36 79° ESE 02:15:19 10° NNE
CZ-2D R/B 2.2 02:06:27 10° N 02:11:38 65° WNW 02:16:21 12° SSW
STARLINK-1281 4.1 02:08:48 15° SW 02:12:00 45° SSE 02:15:58 10° ENE
STARLINK-42 3.2 02:09:08 10° W 02:12:14 66° NNW 02:15:21 10° ENE
Cosmos 2221 2.9 02:08:04 10° NNW 02:12:16 48° W 02:16:17 11° SSW
STARLINK-1377 3.6 02:08:49 10° WNW 02:12:51 83° NNE 02:16:52 10° ESE
IRIDIUM 104 4.4 02:07:57 10° S 02:13:10 83° E 02:18:26 10° N
STARLINK-1029 2.8 02:11:18 12° WSW 02:14:11 81° SSE 02:17:21 10° ENE
STARLINK-60 4.2 02:12:24 10° W 02:14:51 20° SW 02:17:17 10° S
STARLINK-34 2.8 02:11:58 10° WSW 02:15:00 86° NNW 02:18:06 10° ENE
STARLINK-41 3.2 02:12:45 10° W 02:15:47 65° NNW 02:18:50 10° ENE
FALCON 9 DEB 3.1 02:13:05 10° WNW 02:16:30 58° SSW 02:19:53 10° SE
STARLINK-1310 4.0 02:13:35 14° SW 02:16:58 48° SSE 02:20:58 10° ENE
GP-B 4.3 02:13:11 10° NNW 02:16:59 28° WNW 02:20:25 12° SW
STARLINK-1353 3.6 02:13:10 10° WNW 02:17:11 85° NNE 02:21:13 10° ESE
ATLAS 5 CENTAUR R/B 4.3 02:16:25 10° NNW 02:17:34 13° NNE 02:19:02 10° NE
Nadezhda 3 Rocket 4.2 02:11:21 10° NNW 02:17:34 62° W 02:23:48 10° S
Cosmos 1315 Rocket 3.4 02:14:21 10° NNW 02:18:00 38° W 02:21:25 12° SSW
STARLINK-62 2.8 02:15:47 10° WSW 02:18:51 83° NNW 02:21:54 10° ENE
Cosmos 1842 Rocket 4.4 02:15:23 10° NNW 02:19:28 35° W 02:23:13 12° SSW
STARLINK-1272 3.3 02:16:04 10° WSW 02:19:36 77° NNW 02:23:09 10° ENE
CBERS-1 4.1 02:16:07 10° NNE 02:21:17 84° ESE 02:26:25 10° SSW
STARLINK-1375 3.5 02:17:32 10° WNW 02:21:35 88° NNE 02:25:36 10° ESE
STARLINK-1319 4.0 02:18:21 13° SW 02:21:55 51° SSE 02:25:57 10° ENE
IRIDIUM 114 4.3 02:17:06 10° S 02:22:19 84° W 02:27:35 10° N
STARLINK-1307 3.5 02:21:48 10° W 02:25:30 76° NNW 02:29:14 10° ENE
STARLINK-1350 3.5 02:21:53 10° WNW 02:25:55 89° SSW 02:29:57 10° ESE
STARLINK-1277 3.9 02:23:08 12° SW 02:26:53 54° SSE 02:30:56 10° ENE
Shenzhou-11 Module 3.5 02:26:47 13° SSW 02:27:15 13° S 02:28:35 10° SSE
STARLINK-1290 3.5 02:25:19 10° W 02:29:02 74° NNW 02:32:47 10° ENE
STARLINK-1352 3.5 02:26:04 10° WNW 02:30:05 87° SSW 02:34:06 10° ESE
Cosmos 2058 3.0 02:27:00 10° SSW 02:31:09 67° WNW 02:35:22 10° N
IRIDIUM 103 4.4 02:26:18 10° SSW 02:31:30 71° W 02:36:44 10° N
Cosmos 2360 Rocket 2.7 02:26:15 10° S 02:31:43 55° ESE 02:37:14 10° NE
STARLINK-1276 3.8 02:27:56 11° SW 02:31:52 58° SSE 02:35:57 10° ENE
STARLINK-1368 3.5 02:30:45 10° WNW 02:34:47 83° SSW 02:38:49 10° ESE
STARLINK-1317 3.7 02:32:51 10° W 02:36:46 71° N 02:40:40 10° ENE
STARLINK-1305 3.8 02:32:43 10° SW 02:36:48 61° SSE 02:40:54 10° ENE
STARLINK-1306 3.8 02:33:19 10° SW 02:37:28 64° SSE 02:41:39 10° ENE
STARLINK-55 3.6 02:34:52 10° W 02:38:02 57° N 02:41:12 10° ENE
CZ-4B R/B 4.0 02:33:57 10° N 02:39:04 53° WNW 02:44:10 10° SW
STARLINK-1369 3.5 02:35:12 10° WNW 02:39:14 80° SSW 02:43:15 10° ESE
STARLINK-1274 3.5 02:35:49 10° W 02:39:22 68° N 02:42:54 10° ENE
Cosmos 1980 Rocket 3.6 02:35:00 10° WSW 02:39:52 29° NW 02:44:47 10° NNE
STARLINK-43 3.9 02:37:33 10° W 02:41:12 59° N 02:44:52 10° E
STARLINK-1262 3.7 02:37:42 10° SW 02:41:49 65° SSE 02:45:56 10° ENE
STARLINK-1372 3.4 02:39:22 10° WNW 02:43:22 77° SSW 02:47:20 10° ESE
STARLINK-1291 3.7 02:40:05 10° W 02:43:49 68° N 02:47:32 10° ENE
Cosmos 2333 Rocket 3.8 02:40:38 10° SSE 02:45:27 30° ESE 02:50:18 10° NE
STARLINK-1300 3.7 02:42:39 10° WSW 02:46:47 68° SSE 02:50:54 10° ENE
STARLINK-1264 3.7 02:43:25 10° W 02:47:09 67° N 02:50:53 10° ENE
Meteor 1-28 Rocket 3.2 02:43:36 10° SSE 02:47:21 86° WSW 02:51:07 10° NNW
STARLINK-29 4.2 02:45:12 10° W 02:47:41 21° SW 02:50:11 10° SSE
STARLINK-1378 3.5 02:44:05 10° WNW 02:48:07 73° SSW 02:52:07 10° ESE
Landsat 5 4.4 02:44:19 10° SSE 02:48:44 58° ENE 02:53:05 10° N
ADEOS II 2.2 02:44:07 10° NNE 02:49:23 74° WNW 02:54:37 10° SSW
Cosmos 2219 Rocket 3.8 02:44:48 10° SSE 02:49:33 30° ESE 02:54:20 10° NE
STARLINK-28 3.7 02:46:27 10° W 02:49:37 55° N 02:52:47 10° ENE
STARLINK-1267 3.7 02:46:48 10° W 02:50:31 65° N 02:54:15 10° ENE
STARLINK-1295 3.7 02:47:36 10° WSW 02:51:44 72° SSE 02:55:52 10° ENE
IRS-1D 3.9 02:46:57 10° N 02:52:09 57° WNW 02:57:12 10° SW
STARLINK-64 3.3 02:48:43 10° WSW 02:52:19 86° NNW 02:55:56 10° ENE
SL-4 R/B 3.6 02:49:00 10° W 02:52:26 20° SW 02:55:47 10° S
STARLINK-1379 3.5 02:48:35 10° WNW 02:52:37 70° SSW 02:56:38 10° ESE
Cosmos 2263 Rocket 3.7 02:49:06 10° WNW 02:52:44 18° W 02:56:22 10° SW
IDEFIX/ARIANE 42P 3.6 02:47:45 10° NNE 02:52:50 46° E 02:57:51 10° S
Cosmos 1606 3.0 02:49:53 10° N 02:53:40 69° E 02:57:26 10° SSE
